Regional Weather Roundup
Issued by NWS

Home | Current Version | Previous Version | Graphics & Text | Print | Product List | Glossary On
Versions: 1 2 3 4 5 6 7 8 9 10 11 12 13 14 15 16 17 18 19 20 21 22 23 24 25 26 27 28 29 30 31 32 33 34 35 36 37 38 39 40 41 42 43 44 45 46 47 48 49 50
000
ASUS44 KMEG 261700
RWRTN
TENNESSEE HOURLY STATE WEATHER ROUNDUP
NATIONAL WEATHER SERVICE MEMPHIS TN
1200 PM CDT WED APR 26 2017

TNZ002-004-019-021-049-052-054-088>092-261800-
WEST TENNESSEE

CITY           SKY/WX    TMP DP  RH WIND       PRES   REMARKS
MEMPHIS INTL   PTSUNNY   75  64  68 S15G26    29.65S
NWS MEMPHIS      N/A     78 N/A N/A MISG        N/A
JACKSON        MOSUNNY   78  64  61 S16G24    29.68R
DYERSBURG      CLOUDY    78  64  61 S14G24    29.64F
PARIS          PTSUNNY   75  63  64 S12       29.68R
$$

TNZ008-025-027-028-033-062-065-066-261800-
NORTH MIDDLE TENNESSEE

CITY           SKY/WX    TMP DP  RH WIND       PRES   REMARKS
NASHVILLE      MOSUNNY   79  61  53 S14       29.70F
CLARKSVILLE    SUNNY     78  62  57 S16       29.67S
SMYRNA         SUNNY     78  60  53 S13G20    29.71F
CROSSVILLE     MOSUNNY   72  57  59 VRB3      29.82F
$$

TNZ061-075-076-078-094-096-097-261800-
SOUTH MIDDLE TENNESSEE

CITY           SKY/WX    TMP DP  RH WIND       PRES   REMARKS
TULLAHOMA      SUNNY     73  57  56 S9        29.77F
WINCHESTER     SUNNY     77  57  50 S7        29.78S
COLUMBIA       SUNNY     79  63  57 S10       29.70S
SHELBYVILLE    SUNNY     77  61  57 S15       29.74F
$$

TNZ017-018-042-046-047-261800-
NORTHEAST TENNESSEE

CITY           SKY/WX    TMP DP  RH WIND       PRES   REMARKS
TRI CITIES     MOSUNNY   73  57  57 CALM      29.84F
$$

TNZ012-013-036-069-073-074-261800-
CENTRAL EAST TENNESSEE

CITY           SKY/WX    TMP DP  RH WIND       PRES   REMARKS
KNOXVILLE      MOSUNNY   75  57  53 SW10      29.80F
OAK RIDGE      PTSUNNY   75  57  53 VRB3      29.81F
GATLINBURG     SUNNY     75  57  53 NE7       29.80F
$$

TNZ083-085-099-261800-
SOUTHEAST TENNESSEE

CITY           SKY/WX    TMP DP  RH WIND       PRES   REMARKS
CHATTANOOGA    MOSUNNY   77  58  51 SE8       29.80F
$$

SKY/WX REPORTED AS FAIR MEANS FEW OR NO CLOUDS BELOW
12 THOUSAND FEET.




USA.gov is the U.S. government's official web portal to all federal, state and local government web resources and services.